Location: Battlefield Observatory
(36.7579°N, 76.2613°W)
Time: 00:08:18
(UTC-05:00)

ISS - Visible Passes

Search period start: 18 February 2018 00:00
Search period end: 28 February 2018 00:00
Orbit: 403 x 407 km, 51.6° (Epoch: 18 February)

Date Brightness Start Highest point End Pass type
(mag) Time Alt. Az. Time Alt. Az. Time Alt. Az.
23 Feb -0.6 05:59:10 10° SSE 06:00:33 12° SE 06:01:57 10° ESE visible
25 Feb -2.0 05:49:17 10° SSW 05:52:13 32° SE 05:55:11 10° ENE visible
26 Feb -1.0 04:58:03 10° SSE 05:00:06 16° SE 05:02:10 10° E visible
27 Feb -3.9 05:41:11 13° SW 05:43:59 89° NW 05:47:16 10° NE visible
